Change the Weather History Date:

Thursday, May 30, 2013

  Actual Average Record
Temperature  
Mean Temperature 80 °F -  
Max Temperature 90 °F 87 °F 93 °F (2000)
Min Temperature 72 °F 63 °F 62 °F (2003)
Cooling Degree Days 16    
Growing Degree Days 30 (Base 50)    
Moisture  
Dew Point 69 °F    
Average Humidity 75    
Maximum Humidity 93    
Minimum Humidity 46    
Precipitation  
Precipitation 0.00 in - - ()
Sea Level Pressure  
Sea Level Pressure 30.09 in    
Wind  
Wind Speed 9 mph (East)    
Max Wind Speed 20 mph    
Max Gust Speed 30 mph    
Visibility 10 miles    
Events      
Averages and records for this station are not official NWS values.
T = Trace of Precipitation, MM = Missing Value Source: NWS Daily Summary

Daily Weather History Graph

Daily Weather History Graph

Search for Another Location

Airport or City:

Trip Planner

Search our weather history database for the weather conditions in past years. The results will help you decide how hot, cold, wet, or windy it might be!

Date:

Astronomy

May. 30, 2013 Rise Set
Actual Time 6:33 AM EDT 8:22 PM EDT
Civil Twilight 6:06 AM EDT 8:48 PM EDT
Nautical Twilight 5:34 AM EDT 9:20 PM EDT
Astronomical Twilight 5:01 AM EDT 9:54 PM EDT
Moon 12:38 AM EDT (5/30) 12:21 PM EDT (5/30)
Length of Visible Light 14h 41m
Length of Day
13h 49m
Waning Gibbous, 62% of the Moon is Illuminated
May 30
Waning Gibbous
May 31
Last Quarter
Jun 8
New
Jun 16
First Quarter
Jun 23
Full

Hourly Weather History & Observations

Time (EDT) Temp. Heat Index Dew Point Humidity Pressure Visibility Wind Dir Wind Speed Gust Speed Precip Events Conditions
12:53 AM 72.0 °F - 70.0 °F 93% 30.11 in 10.0 mi East 5.8 mph - N/A   Clear
1:53 AM 72.0 °F - 70.0 °F 93% 30.09 in 10.0 mi East 5.8 mph - N/A   Clear
2:53 AM 73.0 °F - 71.1 °F 93% 30.08 in 10.0 mi East 9.2 mph - N/A   Clear
3:53 AM 73.0 °F - 71.1 °F 93% 30.08 in 10.0 mi East 6.9 mph - N/A   Clear
4:53 AM 73.0 °F - 71.1 °F 93% 30.08 in 10.0 mi East 8.1 mph - N/A   Clear
5:53 AM 72.0 °F - 70.0 °F 93% 30.09 in 10.0 mi East 5.8 mph - N/A   Clear
6:53 AM 72.0 °F - 70.0 °F 93% 30.10 in 10.0 mi ENE 4.6 mph - N/A   Clear
7:53 AM 73.9 °F - 71.1 °F 91% 30.11 in 10.0 mi East 9.2 mph - N/A   Clear
8:53 AM 79.0 °F - 72.0 °F 79% 30.12 in 10.0 mi East 10.4 mph 19.6 mph N/A   Clear
9:53 AM 82.0 °F 86.3 °F 71.1 °F 69% 30.11 in 10.0 mi ESE 15.0 mph 20.7 mph N/A   Scattered Clouds
10:53 AM 84.0 °F 87.8 °F 69.1 °F 61% 30.10 in 10.0 mi East 15.0 mph 23.0 mph N/A   Mostly Cloudy
11:53 AM 87.1 °F 91.3 °F 69.1 °F 55% 30.10 in 10.0 mi East 16.1 mph 23.0 mph N/A   Scattered Clouds
12:53 PM 89.1 °F 92.9 °F 68.0 °F 50% 30.08 in 10.0 mi East 18.4 mph 24.2 mph N/A   Mostly Cloudy
1:53 PM 89.1 °F 91.3 °F 66.0 °F 46% 30.07 in 10.0 mi East 19.6 mph 29.9 mph N/A   Clear
2:53 PM 82.0 °F 84.9 °F 68.0 °F 62% 30.08 in 10.0 mi SE 17.3 mph 26.5 mph 0.00 in   Overcast
3:53 PM 81.0 °F 84.4 °F 70.0 °F 69% 30.07 in 10.0 mi ESE 10.4 mph 19.6 mph N/A   Mostly Cloudy
4:53 PM 82.9 °F 86.5 °F 69.1 °F 63% 30.04 in 10.0 mi East 16.1 mph 23.0 mph N/A   Overcast
5:53 PM 82.9 °F 87.0 °F 70.0 °F 65% 30.04 in 10.0 mi East 11.5 mph - N/A   Mostly Cloudy
6:53 PM 81.0 °F 84.1 °F 69.1 °F 67% 30.04 in 10.0 mi ESE 11.5 mph 16.1 mph N/A   Clear
7:53 PM 81.0 °F 83.8 °F 68.0 °F 65% 30.06 in 10.0 mi East 10.4 mph 20.7 mph N/A   Clear
8:53 PM 78.1 °F - 68.0 °F 71% 30.08 in 10.0 mi East 8.1 mph - N/A   Partly Cloudy
9:53 PM 77.0 °F - 68.0 °F 74% 30.09 in 10.0 mi East 8.1 mph - N/A   Clear
10:53 PM 75.9 °F - 68.0 °F 76% 30.11 in 10.0 mi East 10.4 mph - N/A   Clear
11:53 PM 75.0 °F - 68.0 °F 79% 30.12 in 10.0 mi East 8.1 mph - N/A   Clear